Skip Page Navigation
NASA JPL Caltech
NASA Logo - Jet Propulsion Laboratory + View the NASA Portal
+ Near-Earth Object (NEO) Program
Search JPL
JPL Home Earth Solar System Stars & Galaxies Technology
JPL Solar System Dynamics
BODIES ORBITS EPHEMERIDES TOOLS PHYSICAL DATA DISCOVERY FAQ SITE MAP
JPL Small-Body Database Browser
Search: [ help ]  
(2010 MA113)
Classification: Apollo [NEO]          SPK-ID: 3536589
Ephemeris | Orbit Diagram | Orbital Elements | Physical Parameters ]

[ hide orbit diagram ]
Orbit Diagram
Note: Make sure you have Java enabled on your browser to see the applet. This applet is provided as a 3D orbit visualization tool. The applet was implemented using 2-body methods, and hence should not be used for determining accurate long-term trajectories (over several years or decades) or planetary encounter circumstances. For accurate long-term ephemerides, please instead use our Horizons system.
Orbit Viewer

Additional Notes: the orbits shown in the applet are color coded. The planets are white lines, and the asteroid/comet is a blue line. The bright white line indicates the portion of the orbit that is above the ecliptic plane, and the darker portion is below the ecliptic plane. Likewise for the asteroid/comet orbit, the light blue indicates the portion above the ecliptic plane, and the dark blue the portion below the ecliptic plane.

Orbit Viewer applet originally written and kindly provided by Osamu Ajiki (AstroArts), and further modified by Ron Baalke (JPL).


Orbital Elements at Epoch 2455373.5 (2010-Jun-26.0) TDB
Reference: JPL 3 (heliocentric ecliptic J2000)
 Element Value Uncertainty (1-sigma)   Units 
e .6026817221538698 0.38277  
a 2.245867566640175 2.1331 AU
q .8923242338479532 0.012186 AU
i 39.68487248966082 8.9012 deg
node 309.4687738944124 2.3259 deg
peri 27.07402046102698 7.6378 deg
M 346.4383779909161 21.805 deg
tp 2455419.810959246013
(2010-Aug-11.31095925)
8.4829 JED
period 1229.347442171546
3.37
1751.4
4.795
d
yr
n .2928382877375075 0.41719 deg/d
Q 3.599410899432396 3.4186 AU
  Orbit Determination Parameters
   # obs. used (total)      18  
   data-arc span      1 day  
   first obs. used      2010-06-25  
   last obs. used      2010-06-26  
   planetary ephem.      DE405  
   SB-pert. ephem.      SB405-CPV-2  
   condition code      9  
   fit RMS      .19296  
   data source      ORB  
   producer      Otto Matic  
   solution date      2011-Sep-14 20:54:47  

Additional Information
 Earth MOID = .0811278 AU 
 T_jup = 3.124 
[ show covariance matrix ]

Ephemeris | Orbit Diagram | Orbital Elements | Physical Parameters ]

Physical Parameter Table
Parameter Symbol Value Units Sigma Reference Notes
absolute magnitude H 19.239 mag .51822 3 autocmod 2.5a
Ephemeris | Orbit Diagram | Orbital Elements | Physical Parameters ]
ABOUT SSD CREDITS/AWARDS PRIVACY/COPYRIGHT GLOSSARY LINKS
FirstGov 2013-Jun-19 11:00 UT
(server date/time)  
NASA Home Page
Site Manager:   Donald K. Yeomans
Webmaster  Alan B. Chamberlin